| time (UTC) | temp F | wind direction | speed knots | gust knots | rain 1hr in | rain 24hr in | rain mn in | humidity % | barometer mb |
| 20260505124347 | 30 | 185 | 8.7 | 13.0 | 0.00 | 0.00 | 0.00 | 94 | 1013.4 |
| 20260505123841 | 30 | 186 | 9.6 | 19.1 | 0.00 | 0.00 | 0.00 | 94 | 1013.2 |
| 20260505123601 | 30 | 210 | 10.4 | 19.1 | 0.00 | 0.00 | 0.00 | 94 | 1013.2 |
| 20260505122829 | 30 | 210 | 9.6 | 15.6 | 0.00 | 0.00 | 0.00 | 94 | 1013.2 |
| 20260505122323 | 30 | 216 | 9.6 | 13.9 | 0.00 | 0.00 | 0.00 | 94 | 1013.1 |
| 20260505121817 | 30 | 212 | 9.6 | 14.8 | 0.00 | 0.00 | 0.00 | 93 | 1013.0 |
| 20260505121534 | 30 | 189 | 9.6 | 14.8 | 0.00 | 0.00 | 0.00 | 93 | 1013.0 |
| 20260505120808 | 30 | 208 | 8.7 | 13.9 | 0.00 | 0.00 | 0.00 | 93 | 1013.0 |
| 20260505120300 | 30 | 212 | 9.6 | 13.9 | 0.00 | 0.00 | 0.00 | 93 | 1012.8 |
| 20260505115754 | 30 | 211 | 9.6 | 13.9 | 0.00 | 0.00 | 0.00 | 93 | 1012.7 |
| 20260505115248 | 30 | 194 | 9.6 | 13.0 | 0.00 | 0.00 | 0.00 | 93 | 1012.8 |
| 20260505114742 | 30 | 241 | 10.4 | 16.5 | 0.00 | 0.00 | 0.00 | 93 | 1012.8 |
| 20260505114236 | 30 | 221 | 11.3 | 16.5 | 0.00 | 0.00 | 0.00 | 93 | 1012.7 |
| 20260505113730 | 30 | 253 | 13.0 | 18.2 | 0.00 | 0.00 | 0.00 | 93 | 1012.6 |
| 20260505113224 | 30 | 215 | 13.9 | 18.2 | 0.00 | 0.00 | 0.00 | 93 | 1012.6 |
| 20260505112945 | 30 | 218 | 13.0 | 18.2 | 0.00 | 0.00 | 0.00 | 93 | 1012.6 |
| 20260505112212 | 30 | 189 | 13.0 | 17.4 | 0.00 | 0.00 | 0.00 | 93 | 1012.7 |
| 20260505111706 | 31 | 227 | 12.2 | 17.4 | 0.00 | 0.00 | 0.00 | 93 | 1012.6 |
| 20260505111200 | 31 | 205 | 11.3 | 17.4 | 0.00 | 0.00 | 0.00 | 93 | 1012.6 |
| 20260505110654 | 31 | 228 | 11.3 | 15.6 | 0.00 | 0.00 | 0.00 | 93 | 1012.7 |
| 20260505110148 | 31 | 216 | 11.3 | 14.8 | 0.00 | 0.00 | 0.00 | 93 | 1012.7 |
| 20260505102059 | 33 | 195 | 7.8 | 13.0 | 0.00 | 0.00 | 0.00 | 93 | 1013.1 |
| 20260505102039 | 33 | 222 | 8.7 | 13.0 | 0.00 | 0.00 | 0.00 | 93 | 1013.1 |
| 20260505101047 | 33 | 213 | 8.7 | 13.0 | 0.00 | 0.00 | 0.00 | 93 | 1013.1 |
| 20260505100542 | 33 | 223 | 8.7 | 13.0 | 0.00 | 0.00 | 0.00 | 93 | 1013.2 |
| 20260505100036 | 34 | 219 | 7.8 | 12.2 | 0.00 | 0.00 | 0.00 | 93 | 1013.2 |
| 20260505095752 | 34 | 208 | 7.8 | 13.9 | 0.00 | 0.00 | 0.00 | 93 | 1013.2 |
| 20260505095240 | 34 | 208 | 7.8 | 13.9 | 0.00 | 0.00 | 0.00 | 92 | 1013.4 |
| 20260505094517 | 33 | 213 | 7.8 | 13.0 | 0.00 | 0.00 | 0.00 | 92 | 1013.4 |
| 20260505094011 | 34 | 220 | 7.8 | 12.2 | 0.00 | 0.00 | 0.00 | 92 | 1013.4 |
| 20260505093958 | 34 | 211 | 7.8 | 10.4 | 0.00 | 0.00 | 0.00 | 91 | 1013.5 |
| 20260505093000 | 34 | 200 | 7.0 | 11.3 | 0.00 | 0.00 | 0.00 | 91 | 1013.5 |
| 20260505092454 | 34 | 208 | 6.1 | 11.3 | 0.00 | 0.00 | 0.00 | 90 | 1013.5 |
| 20260505092209 | 35 | 216 | 5.2 | 7.8 | 0.00 | 0.00 | 0.00 | 89 | 1013.6 |
| 20260505091441 | 35 | 218 | 5.2 | 7.0 | 0.00 | 0.00 | 0.00 | 88 | 1013.6 |
| 20260505090936 | 35 | 222 | 5.2 | 7.8 | 0.00 | 0.00 | 0.00 | 87 | 1013.6 |
| 20260505090655 | 35 | 231 | 5.2 | 7.8 | 0.00 | 0.00 | 0.00 | 87 | 1013.6 |
| 20260505085923 | 35 | 245 | 6.1 | 7.8 | 0.00 | 0.00 | 0.00 | 86 | 1013.6 |
| 20260505085417 | 35 | 241 | 6.1 | 8.7 | 0.00 | 0.00 | 0.00 | 87 | 1013.5 |
| 20260505084912 | 35 | 248 | 6.1 | 8.7 | 0.00 | 0.00 | 0.00 | 87 | 1013.5 |
| 20260505084406 | 35 | 241 | 5.2 | 8.7 | 0.00 | 0.00 | 0.00 | 88 | 1013.6 |
| 20260505083900 | 35 | 241 | 5.2 | 7.0 | 0.00 | 0.00 | 0.00 | 89 | 1013.8 |
| 20260505083353 | 34 | 257 | 4.3 | 6.1 | 0.00 | 0.00 | 0.00 | 90 | 1013.8 |
| 20260505082847 | 34 | 260 | 3.5 | 6.1 | 0.00 | 0.00 | 0.00 | 90 | 1013.9 |
| 20260505082607 | 35 | 270 | 1.7 | 5.2 | 0.00 | 0.00 | 0.00 | 90 | 1013.9 |
| 20260505081836 | 35 | 288 | 1.7 | 6.1 | 0.00 | 0.00 | 0.00 | 90 | 1014.0 |
| 20260505081330 | 35 | 284 | 2.6 | 6.1 | 0.00 | 0.00 | 0.00 | 90 | 1014.0 |
| 20260505080829 | 35 | 270 | 2.6 | 8.7 | 0.00 | 0.00 | 0.00 | 90 | 1013.9 |
| 20260505080517 | 34 | 293 | 4.3 | 7.8 | 0.00 | 0.00 | 0.00 | 92 | 1013.9 |
| 20260505080405 | 35 | 238 | 3.5 | 8.7 | 0.00 | 0.00 | 0.00 | 90 | 1013.9 |
| 20260505075919 | 34 | 289 | 4.3 | 7.8 | 0.00 | 0.00 | 0.00 | 91 | 1014.0 |
| 20260505074828 | 34 | 258 | 4.3 | 7.0 | 0.00 | 0.00 | 0.00 | 93 | 1014.0 |
| 20260505074554 | 34 | 335 | 4.3 | 7.0 | 0.00 | 0.00 | 0.00 | 92 | 1014.3 |
| 20260505073828 | 34 | 316 | 4.3 | 8.7 | 0.00 | 0.00 | 0.00 | 92 | 1014.2 |
| 20260505073327 | 34 | 330 | 5.2 | 8.7 | 0.00 | 0.00 | 0.00 | 92 | 1014.2 |
| 20260505072828 | 34 | 359 | 4.3 | 8.7 | 0.00 | 0.00 | 0.00 | 92 | 1014.3 |
| 20260505072328 | 34 | 330 | 3.5 | 7.0 | 0.00 | 0.00 | 0.00 | 92 | 1014.3 |
| 20260505071828 | 34 | 320 | 4.3 | 5.2 | 0.00 | 0.00 | 0.00 | 91 | 1014.3 |
| 20260505071327 | 34 | 344 | 4.3 | 5.2 | 0.00 | 0.00 | 0.00 | 91 | 1014.3 |
| 20260505071050 | 34 | 342 | 4.3 | 7.8 | 0.00 | 0.00 | 0.00 | 90 | 1014.3 |
| 20260505070327 | 35 | 354 | 3.5 | 7.8 | 0.00 | 0.00 | 0.00 | 90 | 1014.3 |
| 20260505065828 | 35 | 4 | 1.7 | 5.2 | 0.00 | 0.00 | 0.00 | 88 | 1014.3 |
| 20260505065328 | 35 | 23 | 1.7 | 4.3 | 0.00 | 0.00 | 0.00 | 86 | 1014.3 |
| 20260505065045 | 35 | 257 | 2.6 | 3.5 | 0.00 | 0.00 | 0.00 | 85 | 1014.3 |
| 20260505064812 | 35 | 274 | 2.6 | 5.2 | 0.00 | 0.00 | 0.00 | 86 | 1014.2 |
| 20260505063816 | 35 | 242 | 3.5 | 5.2 | 0.00 | 0.00 | 0.00 | 87 | 1014.2 |
| 20260505063309 | 35 | 258 | 3.5 | 6.1 | 0.00 | 0.00 | 0.00 | 88 | 1014.4 |
| 20260505062806 | 35 | 270 | 2.6 | 6.1 | 0.00 | 0.00 | 0.00 | 89 | 1014.7 |
| 20260505062304 | 35 | 277 | 1.7 | 3.5 | 0.00 | 0.00 | 0.00 | 89 | 1014.4 |
| 20260505061806 | 34 | 308 | 1.7 | 0.0 | 0.00 | 0.00 | 0.00 | 89 | 1014.6 |
| 20260505060204 | 34 | 354 | 7.0 | 9.6 | 0.00 | 0.00 | 0.00 | 90 | 1014.8 |
| 20260505055658 | 35 | 347 | 7.0 | 9.6 | 0.00 | 0.00 | 0.00 | 89 | 1014.8 |
| 20260505055152 | 35 | 359 | 6.1 | 9.6 | 0.00 | 0.00 | 0.00 | 88 | 1014.8 |
| 20260505054402 | 35 | 359 | 5.2 | 8.7 | 0.00 | 0.00 | 0.00 | 86 | 1014.8 |
| 20260505053633 | 36 | 4 | 5.2 | 7.8 | 0.00 | 0.00 | 0.00 | 84 | 1014.8 |
| 20260505053128 | 37 | 322 | 3.5 | 7.0 | 0.00 | 0.00 | 0.00 | 81 | 1014.8 |
| 20260505052847 | 37 | 332 | 3.5 | 7.0 | 0.00 | 0.00 | 0.00 | 78 | 1015.0 |
| 20260505052116 | 38 | 4 | 3.5 | 5.2 | 0.00 | 0.00 | 0.00 | 77 | 1014.8 |
| 20260505051828 | 38 | 359 | 4.3 | 6.1 | 0.00 | 0.00 | 0.00 | 77 | 1014.8 |
| 20260505051104 | 38 | 16 | 4.3 | 6.1 | 0.00 | 0.00 | 0.00 | 76 | 1014.8 |
| 20260505050558 | 38 | 13 | 3.5 | 7.0 | 0.00 | 0.00 | 0.00 | 76 | 1015.0 |
| 20260505050311 | 38 | 26 | 5.2 | 8.7 | 0.00 | 0.00 | 0.00 | 76 | 1014.8 |
| 20260505041458 | 36 | 343 | 6.1 | 10.4 | 0.00 | 0.00 | 0.00 | 82 | 1015.0 |
| 20260505040952 | 36 | 35 | 7.8 | 11.3 | 0.00 | 0.00 | 0.00 | 84 | 1014.8 |
| 20260505040710 | 36 | 23 | 7.8 | 11.3 | 0.00 | 0.00 | 0.00 | 83 | 1014.7 |
| 20260505035940 | 36 | 8 | 9.6 | 14.8 | 0.00 | 0.00 | 0.00 | 83 | 1014.6 |
| 20260505035652 | 36 | 20 | 10.4 | 14.8 | 0.00 | 0.00 | 0.00 | 83 | 1014.6 |
| 20260505034928 | 36 | 36 | 9.6 | 14.8 | 0.00 | 0.00 | 0.00 | 83 | 1014.6 |
| 20260505034422 | 36 | 343 | 9.6 | 13.9 | 0.00 | 0.00 | 0.00 | 82 | 1014.6 |
| 20260505033916 | 36 | 359 | 10.4 | 15.6 | 0.00 | 0.00 | 0.00 | 82 | 1014.4 |
| 20260505033410 | 36 | 32 | 12.2 | 18.2 | 0.00 | 0.00 | 0.00 | 82 | 1014.4 |
| 20260505032904 | 36 | 354 | 12.2 | 18.2 | 0.00 | 0.00 | 0.00 | 82 | 1014.4 |
| 20260505032358 | 36 | 4 | 11.3 | 16.5 | 0.00 | 0.00 | 0.00 | 82 | 1014.2 |
| 20260505031853 | 36 | 359 | 10.4 | 15.6 | 0.00 | 0.00 | 0.00 | 82 | 1014.2 |
| 20260505031346 | 36 | 349 | 10.4 | 14.8 | 0.00 | 0.00 | 0.00 | 82 | 1013.9 |
| 20260505030839 | 36 | 340 | 11.3 | 19.1 | 0.00 | 0.00 | 0.00 | 82 | 1013.9 |
| 20260505030334 | 36 | 4 | 12.2 | 19.1 | 0.00 | 0.00 | 0.00 | 82 | 1013.6 |
| 20260505030051 | 36 | 10 | 13.0 | 18.2 | 0.00 | 0.00 | 0.00 | 82 | 1013.6 |
| 20260505025322 | 36 | 4 | 13.0 | 18.2 | 0.00 | 0.00 | 0.00 | 82 | 1013.5 |
| 20260505025035 | 36 | 20 | 13.9 | 20.0 | 0.00 | 0.00 | 0.00 | 82 | 1013.8 |
| 20260505024310 | 36 | 354 | 13.9 | 21.7 | 0.00 | 0.00 | 0.00 | 82 | 1013.6 |
| 20260505023804 | 36 | 345 | 13.9 | 21.7 | 0.00 | 0.00 | 0.00 | 81 | 1013.8 |
| 20260505023259 | 37 | 9 | 14.8 | 22.6 | 0.00 | 0.00 | 0.00 | 80 | 1013.8 |
| 20260505023014 | 37 | 359 | 13.9 | 22.6 | 0.00 | 0.00 | 0.00 | 79 | 1013.6 |
| 20260505022511 | 37 | 349 | 13.0 | 20.0 | 0.00 | 0.00 | 0.00 | 79 | 1013.8 |
| 20260505021739 | 37 | 354 | 13.0 | 19.1 | 0.00 | 0.00 | 0.00 | 78 | 1013.8 |
| 20260505021234 | 37 | 349 | 13.9 | 20.9 | 0.00 | 0.00 | 0.00 | 78 | 1013.8 |
| 20260505020951 | 37 | 359 | 13.9 | 21.7 | 0.00 | 0.00 | 0.00 | 78 | 1013.8 |
| 20260505020222 | 37 | 4 | 12.2 | 21.7 | 0.00 | 0.00 | 0.00 | 78 | 1013.8 |
| 20260505015716 | 37 | 359 | 11.3 | 16.5 | 0.00 | 0.00 | 0.00 | 78 | 1014.0 |
| 20260505015210 | 37 | 340 | 11.3 | 16.5 | 0.00 | 0.00 | 0.00 | 78 | 1014.3 |
| 20260505014705 | 37 | 308 | 12.2 | 18.2 | 0.00 | 0.00 | 0.00 | 79 | 1014.0 |
| 20260505014158 | 37 | 333 | 12.2 | 21.7 | 0.00 | 0.00 | 0.00 | 79 | 1013.8 |
| 20260505013913 | 37 | 354 | 13.0 | 21.7 | 0.00 | 0.00 | 0.00 | 79 | 1013.6 |
| 20260505013146 | 37 | 337 | 14.8 | 24.3 | 0.00 | 0.00 | 0.00 | 79 | 1013.6 |
| 20260505012640 | 37 | 329 | 16.5 | 25.2 | 0.00 | 0.00 | 0.00 | 78 | 1013.6 |
| 20260505012134 | 38 | 359 | 17.4 | 25.2 | 0.00 | 0.00 | 0.00 | 77 | 1013.8 |
| 20260505011628 | 38 | 354 | 17.4 | 25.2 | 0.00 | 0.00 | 0.00 | 75 | 1013.5 |
| 20260505011122 | 40 | 359 | 17.4 | 25.2 | 0.00 | 0.00 | 0.00 | 70 | 1013.5 |
| 20260505010616 | 41 | 12 | 15.6 | 27.8 | 0.00 | 0.00 | 0.00 | 67 | 1013.5 |
| 20260505010110 | 42 | 18 | 12.2 | 27.8 | 0.00 | 0.00 | 0.00 | 62 | 1013.2 |
| 20260505005603 | 43 | 44 | 11.3 | 23.5 | 0.00 | 0.00 | 0.00 | 59 | 1013.4 |
| 20260505005058 | 44 | 22 | 12.2 | 19.1 | 0.00 | 0.00 | 0.00 | 59 | 1013.5 |
| 20260505004552 | 44 | 4 | 10.4 | 19.1 | 0.00 | 0.00 | 0.00 | 58 | 1013.6 |
| 20260505004046 | 44 | 12 | 9.6 | 16.5 | 0.00 | 0.00 | 0.00 | 57 | 1013.4 |
| 20260505003800 | 44 | 23 | 7.8 | 15.6 | 0.00 | 0.00 | 0.00 | 57 | 1013.4 |
| 20260505003034 | 44 | 14 | 8.7 | 13.9 | 0.00 | 0.00 | 0.00 | 57 | 1013.4 |
| 20260505002528 | 44 | 38 | 8.7 | 13.9 | 0.00 | 0.00 | 0.00 | 57 | 1013.4 |
| 20260505002022 | 44 | 11 | 6.1 | 13.9 | 0.00 | 0.00 | 0.00 | 57 | 1013.4 |
| 20260505001516 | 44 | 35 | 7.0 | 15.6 | 0.00 | 0.00 | 0.00 | 61 | 1013.5 |
| 20260505001010 | 44 | 217 | 8.7 | 17.4 | 0.00 | 0.00 | 0.00 | 59 | 1013.6 |
| 20260505000509 | 45 | 256 | 7.0 | 17.4 | 0.00 | 0.00 | 0.00 | 58 | 1013.9 |
| 20260505000234 | 46 | 272 | 6.1 | 13.9 | 0.00 | 0.00 | 0.00 | 53 | 1013.8 |
| 20260504235509 | 46 | 273 | 5.2 | 10.4 | 0.00 | 0.00 | 0.00 | 51 | 1013.8 |
| 20260504235009 | 46 | 359 | 6.1 | 11.3 | 0.00 | 0.00 | 0.00 | 50 | 1013.8 |
| 20260504234510 | 46 | 8 | 7.8 | 13.9 | 0.00 | 0.00 | 0.00 | 51 | 1013.5 |
| 20260504234009 | 47 | 37 | 8.7 | 16.5 | 0.00 | 0.00 | 0.00 | 50 | 1013.2 |
| 20260504233509 | 47 | 359 | 8.7 | 16.5 | 0.00 | 0.00 | 0.00 | 50 | 1013.2 |
| 20260504233235 | 47 | 11 | 7.8 | 14.8 | 0.00 | 0.00 | 0.00 | 50 | 1013.1 |
| 20260504232509 | 48 | 27 | 9.6 | 15.6 | 0.00 | 0.00 | 0.00 | 48 | 1013.1 |
| 20260504232010 | 48 | 344 | 9.6 | 15.6 | 0.00 | 0.00 | 0.00 | 45 | 1013.2 |
| 20260504231509 | 49 | 18 | 8.7 | 14.8 | 0.00 | 0.00 | 0.00 | 45 | 1013.1 |
| 20260504231008 | 49 | 33 | 7.8 | 13.9 | 0.00 | 0.00 | 0.00 | 45 | 1013.2 |
| 20260504230509 | 50 | 28 | 6.1 | 13.0 | 0.00 | 0.00 | 0.00 | 43 | 1013.1 |
| 20260504230008 | 50 | 30 | 4.3 | 13.0 | 0.00 | 0.00 | 0.00 | 49 | 1013.1 |
| 20260504225510 | 48 | 354 | 5.2 | 12.2 | 0.00 | 0.00 | 0.00 | 50 | 1013.0 |
| 20260504225006 | 47 | 10 | 7.0 | 12.2 | 0.00 | 0.00 | 0.00 | 49 | 1013.1 |
| 20260504224729 | 47 | 334 | 8.7 | 16.5 | 0.00 | 0.00 | 0.00 | 51 | 1013.2 |
| 20260504224007 | 47 | 17 | 9.6 | 16.5 | 0.00 | 0.00 | 0.00 | 53 | 1013.2 |
| 20260504223506 | 46 | 354 | 9.6 | 16.5 | 0.00 | 0.00 | 0.00 | 52 | 1013.1 |
| 20260504223006 | 46 | 20 | 10.4 | 16.5 | 0.00 | 0.00 | 0.00 | 52 | 1013.1 |
| 20260504222507 | 47 | 10 | 10.4 | 19.1 | 0.00 | 0.00 | 0.00 | 52 | 1013.1 |
| 20260504222007 | 47 | 354 | 10.4 | 19.1 | 0.00 | 0.00 | 0.00 | 51 | 1013.1 |
| 20260504221507 | 47 | 21 | 11.3 | 19.1 | 0.00 | 0.00 | 0.00 | 49 | 1013.1 |
| 20260504221007 | 47 | 29 | 13.0 | 21.7 | 0.00 | 0.00 | 0.00 | 49 | 1013.1 |
| 20260504220508 | 47 | 8 | 14.8 | 24.3 | 0.00 | 0.00 | 0.00 | 48 | 1013.1 |
| 20260504220007 | 47 | 8 | 14.8 | 24.3 | 0.00 | 0.00 | 0.00 | 47 | 1013.2 |
| 20260504215722 | 48 | 339 | 13.9 | 22.6 | 0.00 | 0.00 | 0.00 | 46 | 1013.1 |
| 20260504215003 | 48 | 345 | 13.0 | 21.7 | 0.00 | 0.00 | 0.00 | 45 | 1013.0 |
| 20260504214503 | 50 | 39 | 8.7 | 21.7 | 0.00 | 0.00 | 0.00 | 41 | 1013.2 |
| 20260504214002 | 53 | 24 | 3.5 | 13.0 | 0.00 | 0.00 | 0.00 | 37 | 1013.4 |
| 20260504213502 | 54 | 133 | 3.5 | 7.0 | 0.00 | 0.00 | 0.00 | 34 | 1013.4 |
| 20260504213003 | 55 | 37 | 3.5 | 7.0 | 0.00 | 0.00 | 0.00 | 33 | 1013.4 |
| 20260504212731 | 55 | 27 | 2.6 | 7.0 | 0.00 | 0.00 | 0.00 | 35 | 1013.4 |
| 20260504212002 | 54 | 199 | 2.6 | 7.0 | 0.00 | 0.00 | 0.00 | 36 | 1013.5 |
| 20260504211504 | 54 | 58 | 2.6 | 6.1 | 0.00 | 0.00 | 0.00 | 33 | 1013.5 |
| 20260504211221 | 55 | 41 | 4.3 | 13.9 | 0.00 | 0.00 | 0.00 | 32 | 1013.6 |
| 20260504210727 | 55 | 257 | 6.1 | 13.9 | 0.00 | 0.00 | 0.00 | 32 | 1013.5 |
| 20260504205958 | 56 | 9 | 5.2 | 10.4 | 0.00 | 0.00 | 0.00 | 33 | 1013.5 |
| 20260504205458 | 57 | 133 | 3.5 | 7.8 | 0.00 | 0.00 | 0.00 | 32 | 1013.5 |
| 20260504205223 | 57 | 129 | 5.2 | 15.6 | 0.00 | 0.00 | 0.00 | 34 | 1013.6 |
| 20260504204459 | 56 | 154 | 6.1 | 15.6 | 0.00 | 0.00 | 0.00 | 34 | 1013.8 |
| 20260504203959 | 56 | 189 | 6.1 | 12.2 | 0.00 | 0.00 | 0.00 | 34 | 1013.8 |
| 20260504203716 | 55 | 152 | 6.1 | 12.2 | 0.00 | 0.00 | 0.00 | 35 | 1013.8 |
| 20260504203000 | 56 | 264 | 4.3 | 9.6 | 0.00 | 0.00 | 0.00 | 34 | 1013.9 |
| 20260504202721 | 55 | 233 | 3.5 | 9.6 | 0.00 | 0.00 | 0.00 | 33 | 1013.9 |
| 20260504201954 | 54 | 345 | 4.3 | 9.6 | 0.00 | 0.00 | 0.00 | 36 | 1013.8 |
| 20260504201454 | 53 | 309 | 5.2 | 13.9 | 0.00 | 0.00 | 0.00 | 36 | 1013.9 |
| 20260504200955 | 53 | 9 | 6.1 | 13.9 | 0.00 | 0.00 | 0.00 | 34 | 1013.9 |
| 20260504200714 | 53 | 314 | 6.1 | 11.3 | 0.00 | 0.00 | 0.00 | 35 | 1013.9 |
| 20260504195954 | 53 | 235 | 6.1 | 11.3 | 0.00 | 0.00 | 0.00 | 36 | 1013.9 |
| 20260504195454 | 53 | 274 | 6.1 | 11.3 | 0.00 | 0.00 | 0.00 | 36 | 1014.2 |
| 20260504194954 | 51 | 248 | 7.8 | 13.9 | 0.00 | 0.00 | 0.00 | 38 | 1014.2 |
| 20260504194456 | 51 | 241 | 10.4 | 18.2 | 0.00 | 0.00 | 0.00 | 39 | 1014.2 |
| 20260504193948 | 50 | 292 | 10.4 | 18.2 | 0.00 | 0.00 | 0.00 | 41 | 1014.3 |
| 20260504193443 | 50 | 266 | 11.3 | 22.6 | 0.00 | 0.00 | 0.00 | 39 | 1014.2 |
| 20260504192937 | 51 | 241 | 11.3 | 22.6 | 0.00 | 0.00 | 0.00 | 36 | 1014.3 |
| 20260504192431 | 53 | 305 | 7.0 | 20.0 | 0.00 | 0.00 | 0.00 | 33 | 1014.3 |
| 20260504191924 | 53 | 256 | 3.5 | 13.0 | 0.00 | 0.00 | 0.00 | 31 | 1014.3 |
| 20260504191419 | 53 | 237 | 2.6 | 5.2 | 0.00 | 0.00 | 0.00 | 32 | 1014.4 |
| 20260504190913 | 53 | 260 | 2.6 | 6.1 | 0.00 | 0.00 | 0.00 | 36 | 1014.4 |
| 20260504190625 | 53 | 9 | 2.6 | 7.0 | 0.00 | 0.00 | 0.00 | 29 | 1014.3 |
| 20260504185901 | 53 | 354 | 1.7 | 7.0 | 0.00 | 0.00 | 0.00 | 29 | 1014.4 |
| 20260504185355 | 53 | 48 | 2.6 | 7.0 | 0.00 | 0.00 | 0.00 | 30 | 1014.4 |
| 20260504184849 | 52 | 33 | 2.6 | 7.0 | 0.00 | 0.00 | 0.00 | 30 | 1014.4 |
| 20260504184343 | 52 | 35 | 1.7 | 7.8 | 0.00 | 0.00 | 0.00 | 31 | 1014.6 |
| 20260504184057 | 53 | 291 | 1.7 | 7.8 | 0.00 | 0.00 | 0.00 | 29 | 1014.6 |
| 20260504183552 | 53 | 44 | 3.5 | 7.8 | 0.00 | 0.00 | 0.00 | 31 | 1014.7 |
| 20260504182827 | 53 | 350 | 5.2 | 10.4 | 0.00 | 0.00 | 0.00 | 29 | 1014.8 |
| 20260504182319 | 53 | 220 | 6.1 | 12.2 | 0.00 | 0.00 | 0.00 | 29 | 1014.8 |
| 20260504181812 | 53 | 233 | 7.0 | 12.2 | 0.00 | 0.00 | 0.00 | 33 | 1014.8 |
| 20260504181307 | 53 | 218 | 6.1 | 11.3 | 0.00 | 0.00 | 0.00 | 34 | 1015.0 |
| 20260504180801 | 52 | 216 | 7.0 | 12.2 | 0.00 | 0.00 | 0.00 | 32 | 1015.1 |
| 20260504180255 | 53 | 328 | 7.0 | 15.6 | 0.00 | 0.00 | 0.00 | 31 | 1015.2 |
| 20260504175749 | 55 | 230 | 7.8 | 18.2 | 0.00 | 0.00 | 0.00 | 28 | 1015.1 |
| 20260504175242 | 54 | 277 | 7.0 | 18.2 | 0.00 | 0.00 | 0.00 | 32 | 1015.1 |
| 20260504174737 | 53 | 281 | 8.7 | 16.5 | 0.00 | 0.00 | 0.00 | 32 | 1015.4 |
| 20260504174231 | 53 | 335 | 9.6 | 17.4 | 0.00 | 0.00 | 0.00 | 32 | 1015.2 |
| 20260504173725 | 53 | 213 | 9.6 | 19.1 | 0.00 | 0.00 | 0.00 | 29 | 1015.2 |
| 20260504173219 | 53 | 330 | 7.8 | 19.1 | 0.00 | 0.00 | 0.00 | 33 | 1015.4 |
| 20260504172712 | 52 | 264 | 8.7 | 16.5 | 0.00 | 0.00 | 0.00 | 34 | 1015.4 |
| 20260504172207 | 53 | 261 | 7.8 | 15.6 | 0.00 | 0.00 | 0.00 | 32 | 1015.5 |
| 20260504171925 | 55 | 278 | 5.2 | 12.2 | 0.00 | 0.00 | 0.00 | 33 | 1015.5 |
| 20260504171155 | 55 | 274 | 3.5 | 11.3 | 0.00 | 0.00 | 0.00 | 35 | 1015.6 |
| 20260504170647 | 54 | 291 | 3.5 | 11.3 | 0.00 | 0.00 | 0.00 | 32 | 1015.6 |
| 20260504170143 | 54 | 310 | 4.3 | 11.3 | 0.00 | 0.00 | 0.00 | 32 | 1015.6 |
| 20260504160248 | 51 | 280 | 4.3 | 9.6 | 0.00 | 0.00 | 0.00 | 33 | 1016.0 |
| 20260504150931 | 50 | 301 | 4.3 | 8.7 | 0.00 | 0.00 | 0.00 | 34 | 1016.0 |
| 20260504150425 | 50 | 270 | 3.5 | 10.4 | 0.00 | 0.00 | 0.00 | 36 | 1015.9 |
| 20260504141325 | 49 | 316 | 3.5 | 7.8 | 0.00 | 0.00 | 0.00 | 32 | 1015.9 |
| 20260504140821 | 49 | 299 | 3.5 | 7.8 | 0.00 | 0.00 | 0.00 | 33 | 1015.8 |
| 20260504140313 | 49 | 354 | 4.3 | 7.8 | 0.00 | 0.00 | 0.00 | 32 | 1015.8 |